| time (UTC) | temp C | wind direction | speed KPH | gust KPH | rain 1hr cm | rain 24hr cm | rain mn cm | humidity % | barometer mb |
| 20260504081530 | 10 | 180 | 4.8 | 30.6 | 0.00 | 0.00 | 0.00 | 48 | 1016.4 |
| 20260504044526 | 12 | 180 | 4.8 | 8.0 | 0.00 | 0.03 | 0.00 | 40 | 1010.4 |
| 20260504043028 | 12 | 180 | 1.6 | 4.8 | 0.00 | 0.03 | 0.00 | 38 | 1009.9 |
| 20260504041531 | 13 | 180 | 1.6 | 6.4 | 0.00 | 0.03 | 0.00 | 36 | 1009.7 |
| 20260504040046 | 13 | 180 | 1.6 | 8.0 | 0.00 | 0.03 | 0.00 | 33 | 1009.5 |
| 20260504034530 | 14 | 180 | 1.6 | 8.0 | 0.00 | 0.03 | 0.00 | 31 | 1009.2 |
| 20260504033027 | 15 | 180 | 0.0 | 8.0 | 0.00 | 0.03 | 0.00 | 28 | 1008.7 |
| 20260504031530 | 15 | 0 | 0.0 | 1.6 | 0.00 | 0.03 | 0.00 | 28 | 1008.2 |
| 20260504030029 | 16 | 0 | 0.0 | 1.6 | 0.00 | 0.03 | 0.00 | 27 | 1008.1 |
| 20260504024528 | 16 | 0 | 0.0 | 3.2 | 0.00 | 0.03 | 0.00 | 27 | 1008.0 |
| 20260504023028 | 17 | 0 | 0.0 | 3.2 | 0.00 | 0.03 | 0.00 | 26 | 1008.0 |
| 20260504021528 | 17 | 10 | 1.6 | 4.8 | 0.00 | 0.03 | 0.00 | 26 | 1007.8 |
| 20260504020027 | 19 | 180 | 3.2 | 8.0 | 0.00 | 0.03 | 0.00 | 24 | 1007.8 |
| 20260504014532 | 20 | 180 | 6.4 | 16.1 | 0.00 | 0.03 | 0.00 | 22 | 1007.7 |
| 20260504013031 | 21 | 180 | 16.1 | 24.1 | 0.00 | 0.03 | 0.00 | 21 | 1007.7 |
| 20260504011528 | 22 | 180 | 8.0 | 19.3 | 0.00 | 0.03 | 0.00 | 20 | 1007.7 |
| 20260504010030 | 23 | 317 | 6.4 | 16.1 | 0.00 | 0.03 | 0.00 | 16 | 1007.8 |
| 20260504004539 | 23 | 180 | 16.1 | 22.5 | 0.00 | 0.03 | 0.00 | 16 | 1008.0 |
| 20260504003029 | 23 | 180 | 14.5 | 20.9 | 0.00 | 0.03 | 0.00 | 15 | 1008.1 |
| 20260504001529 | 23 | 180 | 14.5 | 22.5 | 0.00 | 0.03 | 0.00 | 16 | 1008.2 |
| 20260504000029 | 23 | 326 | 3.2 | 19.3 | 0.00 | 0.03 | 0.00 | 16 | 1008.4 |
| 20260503234533 | 24 | 300 | 14.5 | 22.5 | 0.00 | 0.03 | 0.00 | 16 | 1008.5 |
| 20260503233028 | 23 | 180 | 14.5 | 30.6 | 0.00 | 0.03 | 0.00 | 15 | 1008.6 |
| 20260503231528 | 23 | 180 | 14.5 | 25.7 | 0.00 | 0.03 | 0.00 | 14 | 1008.7 |
| 20260503230030 | 23 | 180 | 16.1 | 27.4 | 0.00 | 0.03 | 0.00 | 16 | 1008.9 |
| 20260503224528 | 23 | 180 | 12.9 | 29.0 | 0.00 | 0.03 | 0.00 | 15 | 1009.0 |
| 20260503223030 | 23 | 180 | 14.5 | 22.5 | 0.00 | 0.03 | 0.00 | 15 | 1009.1 |
| 20260503221529 | 22 | 180 | 6.4 | 24.1 | 0.00 | 0.03 | 0.00 | 16 | 1009.3 |
| 20260503220028 | 23 | 180 | 20.9 | 29.0 | 0.00 | 0.03 | 0.00 | 16 | 1009.6 |
| 20260503214528 | 23 | 180 | 14.5 | 27.4 | 0.00 | 0.03 | 0.00 | 15 | 1009.8 |
| 20260503213029 | 22 | 180 | 17.7 | 24.1 | 0.00 | 0.03 | 0.00 | 15 | 1010.0 |
| 20260503211527 | 22 | 180 | 11.3 | 25.7 | 0.00 | 0.03 | 0.00 | 16 | 1010.2 |
| 20260503210029 | 22 | 180 | 14.5 | 29.0 | 0.00 | 0.03 | 0.00 | 16 | 1010.4 |
| 20260503204530 | 22 | 180 | 17.7 | 32.2 | 0.00 | 0.03 | 0.00 | 18 | 1010.7 |
| 20260503203030 | 22 | 180 | 17.7 | 32.2 | 0.00 | 0.03 | 0.00 | 17 | 1010.8 |
| 20260503201531 | 22 | 180 | 19.3 | 43.5 | 0.00 | 0.03 | 0.00 | 19 | 1011.0 |
| 20260503200028 | 22 | 180 | 19.3 | 33.8 | 0.00 | 0.03 | 0.00 | 19 | 1011.2 |
| 20260503194532 | 22 | 180 | 22.5 | 35.4 | 0.00 | 0.03 | 0.00 | 18 | 1011.6 |
| 20260503193039 | 22 | 180 | 17.7 | 32.2 | 0.00 | 0.03 | 0.00 | 19 | 1011.6 |
| 20260503191531 | 21 | 180 | 19.3 | 32.2 | 0.00 | 0.03 | 0.00 | 20 | 1012.0 |
| 20260503190032 | 21 | 180 | 19.3 | 30.6 | 0.00 | 0.03 | 0.00 | 20 | 1012.1 |
| 20260503184530 | 21 | 180 | 16.1 | 30.6 | 0.00 | 0.03 | 0.00 | 24 | 1012.4 |
| 20260503183029 | 20 | 180 | 12.9 | 30.6 | 0.00 | 0.03 | 0.00 | 24 | 1012.8 |
| 20260503181532 | 20 | 180 | 14.5 | 32.2 | 0.00 | 0.03 | 0.00 | 23 | 1012.9 |
| 20260503180030 | 20 | 180 | 16.1 | 24.1 | 0.00 | 0.03 | 0.00 | 25 | 1013.1 |
| 20260503174532 | 19 | 180 | 17.7 | 25.7 | 0.00 | 0.03 | 0.00 | 25 | 1013.1 |
| 20260503173028 | 18 | 180 | 12.9 | 24.1 | 0.00 | 0.03 | 0.00 | 26 | 1013.2 |
| 20260503171529 | 18 | 180 | 12.9 | 27.4 | 0.00 | 0.03 | 0.00 | 26 | 1013.4 |